This is the latest recevied weather packets stored in our database for station/object EA3IK-1. If no packets are shown the sender has not sent any weather packets the latest 10 day(s).
| Time | Temp. | Humidity | Pressure | Rain* | Wind** | Luminosity | Snow |
|---|---|---|---|---|---|---|---|
| 1777663582 | 16.67° C | 55% | 1023 hPa | 0 mm | - | - | - |
| 1777662681 | 17.22° C | 56% | 1022.9 hPa | 0 mm | - | - | - |
| 1777661780 | 17.22° C | 57% | 1022.7 hPa | 0 mm | - | - | - |
| 1777660879 | 17.22° C | 59% | 1022.4 hPa | 0 mm | - | - | - |
| 1777659979 | 17.22° C | 59% | 1022.2 hPa | 0 mm | - | - | - |
| 1777659078 | 17.78° C | 60% | 1021.9 hPa | 0 mm | - | - | - |
| 1777658177 | 17.78° C | 63% | 1021.8 hPa | 0 mm | - | - | - |
| 1777657276 | 18.33° C | 65% | 1021.7 hPa | 0 mm | - | - | - |
| 1777656375 | 18.33° C | 67% | 1021.6 hPa | 0 mm | - | - | - |
| 1777655474 | 18.33° C | 68% | 1021.5 hPa | 0 mm | - | - | - |
| 1777654573 | 18.89° C | 68% | 1021.4 hPa | 0 mm | - | - | - |
| 1777653673 | 18.89° C | 68% | 1021.2 hPa | 0 mm | - | - | - |
| 1777652772 | 18.89° C | 68% | 1021.3 hPa | 0 mm | - | - | - |
| 1777651871 | 18.89° C | 68% | 1021.2 hPa | 0 mm | - | - | - |
| 1777650970 | 19.44° C | 68% | 1021.2 hPa | 0 mm | - | - | - |
| 1777650069 | 19.44° C | 68% | 1021.2 hPa | 0 mm | - | - | - |
| 1777649168 | 19.44° C | 68% | 1021.2 hPa | 0 mm | - | - | - |
| 1777648267 | 20° C | 67% | 1021.2 hPa | 0 mm | - | - | - |
| 1777647366 | 20° C | 66% | 1021.2 hPa | 0 mm | - | - | - |
| 1777646466 | 20.56° C | 67% | 1021.2 hPa | 0 mm | - | - | - |
| 1777645565 | 20° C | 67% | 1021.3 hPa | 0 mm | - | - | - |
| 1777644664 | 20.56° C | 67% | 1021.3 hPa | 0 mm | - | - | - |
| 1777643763 | 20.56° C | 67% | 1021.3 hPa | 0 mm | - | - | - |
| 1777642862 | 20.56° C | 67% | 1021.2 hPa | 0 mm | - | - | - |
| 1777641961 | 21.11° C | 67% | 1021.1 hPa | 0 mm | - | - | - |
* Rain latest hour (hover to see other rain measurements)
** Current wind speed in m/s (hover to see current wind gust speed)